This is the latest recevied weather packets stored in our database for station/object M0JUI-1. If no packets are shown the sender has not sent any weather packets the latest 10 day(s).
| Time | Temp. | Humidity | Pressure | Rain* | Wind** | Luminosity | Snow |
|---|---|---|---|---|---|---|---|
| 1787988200 | 14.44° C | 20% | 1004.7 hPa | 0 mm | - | 35 W/m² | - |
| 1787987900 | 14.44° C | 20% | 1004.7 hPa | 0 mm | - | 37 W/m² | - |
| 1787987602 | 14.44° C | 20% | 1004.9 hPa | 0 mm | - | 40 W/m² | - |
| 1787987288 | 14.44° C | 20% | 1004.7 hPa | 0 mm | - | 39 W/m² | - |
| 1787986988 | 14.44° C | 20% | 1004.6 hPa | 0 mm | - | 32 W/m² | - |
| 1787986688 | 14.44° C | 20% | 1004.7 hPa | 0 mm | - | 23 W/m² | - |
| 1787986376 | 14.44° C | 20% | 1004.8 hPa | 0 mm | - | 25 W/m² | - |
| 1787986076 | 14.44° C | 20% | 1004.8 hPa | 0 mm | - | 28 W/m² | - |
| 1787985776 | 14.44° C | 20% | 1004.9 hPa | 0 mm | - | 30 W/m² | - |
| 1787985477 | 14.44° C | 19% | 1004.9 hPa | 0 mm | - | 38 W/m² | - |
| 1787985176 | 14.44° C | 19% | 1004.9 hPa | 0 mm | - | 45 W/m² | - |
| 1787984876 | 14.44° C | 19% | 1005 hPa | 0 mm | - | 51 W/m² | - |
| 1787984576 | 14.44° C | 19% | 1005.1 hPa | 0 mm | - | 56 W/m² | - |
| 1787984277 | 14.44° C | 19% | 1005.1 hPa | 0 mm | - | 61 W/m² | - |
| 1787983976 | 14.44° C | 19% | 1005.1 hPa | 0 mm | - | 55 W/m² | - |
| 1787983677 | 13.89° C | 19% | 1005.1 hPa | 0 mm | - | 40 W/m² | - |
| 1787983376 | 13.89° C | 19% | 1005 hPa | 0 mm | - | 31 W/m² | - |
| 1787983065 | 13.89° C | 19% | 1005.1 hPa | 0 mm | - | 26 W/m² | - |
| 1787982764 | 13.89° C | 19% | 1005 hPa | 0 mm | - | 22 W/m² | - |
| 1787982464 | 13.89° C | 19% | 1004.9 hPa | 0 mm | - | 16 W/m² | - |
| 1787982164 | 13.89° C | 19% | 1005 hPa | 0 mm | - | 12 W/m² | - |
| 1787981864 | 13.33° C | 18% | 1005 hPa | 0 mm | - | 9 W/m² | - |
| 1787981564 | 13.89° C | 18% | 1004.7 hPa | 0 mm | - | 8 W/m² | - |
| 1787981264 | 13.89° C | 18% | 1005 hPa | 0 mm | - | 6 W/m² | - |
| 1787980952 | 13.89° C | 18% | 1005.1 hPa | 0 mm | - | 5 W/m² | - |
* Rain latest hour (hover to see other rain measurements)
** Current wind speed in m/s (hover to see current wind gust speed)